Погода в Бедрине

Россия / Костромская область     58°18′20″N   42°53′51″E
темп.,
°C
ветер,
м/с
пор.,
м/с
влажн.,
%
обл.,
%
осадки,
мм/ч
давл.,
гПа
погр.,
м
7 марта, вс
вс700:00−17юз23980 0.0 101020
03:00−17ю2310028 0.0 100881
06:00−16ю31098100 0.0 1005215
09:00−12ю51294100 0.1 1001467
12:00−8ююв61193100 0.9 997937
15:00−7ююв61194100 1.9 993840
18:00−7ююв51095100 0.9 991665
21:00−6ю2696100 1.9 990332
8 марта, пн
пн800:00−9з2594100 0.4 990131
03:00−13з2395100 0.4 99179
06:00−15зсз369398 0.0 992119
09:00−12сз369391 0.0 994227
12:00−8ссз249395 0.0 996476
15:00−8с468998 0.3 999731
18:00−11с3893100 0.1 1002305
21:00−14ссз399488 0.1 1005389
9 марта, вт
вт900:00−17ссз379673 0.0 1007134
03:00−20ссз379873 0.0 1010168
06:00−24ссз369816 0.0 1012112
09:00−21с359616 0.0 1014246
12:00−17с359369 0.0 1015422
15:00−16с359085 0.1 1016599
18:00−20ссз3796100 0.1 1017180
21:00−23с399796 0.1 1020237
10 марта, ср
ср1000:00−27с369835 0.0 1022108
03:00−29ссз369818 0.0 1023100
06:00−30ссз36980 0.0 102488
09:00−25с35960 0.0 1026227
12:00−19ссз24900 0.0 1025421
15:00−15сз35858 0.0 1025720
18:00−19зсз359596 0.0 102596
21:00−20сз389881 0.0 1026169
11 марта, чт
чт1100:00−22сз369960 0.0 1027114
03:00−21сз379738 0.0 1027150
06:00−20сз4109581 0.0 1027203
09:00−16сз479443 0.0 1028255
12:00−10сз369212 0.0 1028356
15:00−7зсз35887 0.0 1028523
18:00−12з23940 0.0 102846
21:00−15з23950 0.0 102966